Date String (YYYY-MM-DD hh:mm:ss) UTC,Instrument flags,absolute air pressure of the measurement (hPa),sample flow rate (lpm),inlet stack bypass flow (lpm),air temperature of the measurement (°C),ambient temperature measured by the external sensor (°C),aerosol sample conditioner tube jacket temperature (°C),OPC LED temperature (°C),internal box temperature (°C),relative humidity of the measurement (%),span deviation,mass concentration of particles derived from Lorenz-Mie calculation of OPC scattering (μg/m³),mass concentration of particles derived from Lorenz-Mie calculation of OPC scattering (μg/m³),mass concentration of particles derived from Lorenz-Mie calculation of OPC scattering (μg/m³)
DateTimeUTC,F1_M11,P_M11,Q1_M11,Q2_M11,T1_M11,T2_M11,T3_M11,T4_M11,T5_M11,U1_M11,ZSPAN_M11,X2_M11,X0_M11,X1_M11
2024-04-13 04:00:00,SystemResetWarning,0827.9,5.01,000.00,025.7,025.1,000.0,033.8,027.5,010.7,0000.0,0003.55,0008.62,0001.91
2024-04-13 04:01:00,SystemResetWarning,0827.8,5.02,000.00,025.7,025.1,000.0,033.8,027.6,010.7,0000.0,0003.55,0008.99,0001.90
2024-04-13 04:02:00,SystemResetWarning,0827.8,4.99,000.00,025.7,025.1,000.0,033.9,027.6,010.8,0000.0,0003.62,0009.18,0001.91
2024-04-13 04:03:00,SystemResetWarning,0827.8,5.00,000.00,025.7,025.1,000.0,033.9,027.6,010.7,0000.0,0003.63,0009.52,0001.91
2024-04-13 04:04:00,SystemResetWarning,0827.8,5.00,000.00,025.8,025.2,000.0,033.9,027.6,010.7,0000.0,0003.66,0009.58,0001.90
2024-04-13 04:05:00,SystemResetWarning,0827.8,5.01,000.00,025.8,025.2,000.0,033.9,027.6,010.7,0000.0,0003.63,0009.53,0001.89
2024-04-13 04:06:00,SystemResetWarning,0827.9,5.00,000.00,025.8,025.2,000.0,034.0,027.6,010.5,0000.0,0003.59,0009.83,0001.86
2024-04-13 04:07:00,SystemResetWarning,0827.8,5.00,000.00,025.8,025.2,000.0,034.0,027.7,010.4,0000.0,0003.56,0009.27,0001.88
2024-04-13 04:08:00,SystemResetWarning,0827.8,5.01,000.00,025.9,025.2,000.0,034.0,027.7,010.7,0000.0,0003.51,0009.67,0001.89
2024-04-13 04:09:00,SystemResetWarning,0827.7,4.99,000.00,025.9,025.3,000.0,034.0,027.7,010.6,0000.0,0003.42,0009.40,0001.89
2024-04-13 04:10:00,SystemResetWarning,0827.8,4.99,000.00,025.9,025.3,000.0,034.1,027.7,010.4,0000.0,0003.42,0009.77,0001.88
2024-04-13 04:11:00,SystemResetWarning,0827.8,5.01,000.00,025.9,025.3,000.0,034.1,027.7,010.4,0000.0,0003.41,0010.07,0001.88
2024-04-13 04:12:00,SystemResetWarning,0827.8,5.01,000.00,025.9,025.3,000.0,034.1,027.7,010.5,0000.0,0003.41,0009.73,0001.89
2024-04-13 04:13:00,SystemResetWarning,0827.8,5.01,000.00,026.0,025.3,000.0,034.1,027.8,010.4,0000.0,0003.39,0010.01,0001.89
2024-04-13 04:14:00,SystemResetWarning,0827.7,5.00,000.00,026.0,025.3,000.0,034.2,027.8,010.2,0000.0,0003.32,0009.83,0001.87
2024-04-13 04:15:00,SystemResetWarning,0827.7,4.99,000.00,026.0,025.3,000.0,034.2,027.8,010.2,0000.0,0003.29,0009.78,0001.87
2024-04-13 04:16:00,SystemResetWarning,0827.7,5.00,000.00,026.0,025.3,000.0,034.2,027.8,010.2,0000.0,0003.32,0010.07,0001.88
2024-04-13 04:17:00,SystemResetWarning,0827.7,5.00,000.00,026.0,025.0,000.0,034.2,027.6,010.2,0000.0,0003.36,0009.98,0001.89
2024-04-13 04:18:00,SystemResetWarning,0827.6,4.99,000.00,025.6,022.8,000.0,034.3,026.4,010.4,0000.0,0003.38,0009.87,0001.88
2024-04-13 04:19:00,SystemResetWarning,0827.5,5.01,000.00,025.2,021.9,000.0,034.2,025.7,010.7,0000.0,0003.43,0009.55,0001.87
2024-04-13 04:20:00,SystemResetWarning,0827.5,5.00,000.00,025.0,022.1,000.0,034.1,025.7,011.0,0000.0,0003.48,0009.66,0001.88
2024-04-13 04:21:00,SystemResetWarning,0827.5,4.99,000.00,024.9,022.4,000.0,033.9,026.0,011.0,0000.0,0003.49,0009.74,0001.89
2024-04-13 04:22:00,SystemResetWarning,0827.5,5.00,000.00,024.9,022.8,000.0,033.8,026.3,011.0,0000.0,0003.49,0009.34,0001.90
2024-04-13 04:23:00,SystemResetWarning,0827.5,5.01,000.00,025.0,023.1,000.0,033.7,026.5,011.0,0000.0,0003.50,0009.48,0001.90
2024-04-13 04:24:00,SystemResetWarning,0827.5,5.00,000.00,025.0,023.4,000.0,033.7,026.6,010.9,0000.0,0003.52,0009.18,0001.91
2024-04-13 04:25:00,SystemResetWarning,0827.4,4.99,000.00,025.0,023.6,000.0,033.6,026.7,011.0,0000.0,0003.54,0009.11,0001.92
2024-04-13 04:26:00,SystemResetWarning,0827.5,4.99,000.00,025.0,023.8,000.0,033.6,026.8,010.8,0000.0,0003.53,0009.29,0001.93
2024-04-13 04:27:00,SystemResetWarning,0827.9,5.00,000.00,025.1,024.0,000.0,033.6,026.8,010.8,0000.0,0003.56,0009.36,0001.92
2024-04-13 04:28:00,SystemResetWarning,0827.7,5.00,000.00,025.1,024.1,000.0,033.6,026.9,010.8,0000.0,0003.58,0009.20,0001.93
2024-04-13 04:29:00,SystemResetWarning,0827.5,5.00,000.00,025.2,024.2,000.0,033.6,027.0,010.7,0000.0,0003.58,0010.00,0001.93
2024-04-13 04:30:00,SystemResetWarning,0827.5,5.00,000.00,025.2,024.3,000.0,033.6,027.0,010.7,0000.0,0003.53,0009.93,0001.94
2024-04-13 04:31:00,SystemResetWarning,0827.4,5.00,000.00,025.2,024.4,000.0,033.6,027.1,010.7,0000.0,0003.54,0009.89,0001.94
2024-04-13 04:32:00,SystemResetWarning,0827.4,5.00,000.00,025.3,024.5,000.0,033.6,027.1,010.8,0000.0,0003.54,0009.89,0001.93
2024-04-13 04:33:00,SystemResetWarning,0827.4,5.00,000.00,025.3,024.6,000.0,033.6,027.1,010.7,0000.0,0003.52,0010.73,0001.91
2024-04-13 04:34:00,SystemResetWarning,0827.4,5.00,000.00,025.3,024.6,000.0,033.6,027.2,010.9,0000.0,0003.51,0010.77,0001.91
2024-04-13 04:35:00,SystemResetWarning,0827.4,4.99,000.00,025.4,024.7,000.0,033.6,027.2,010.8,0000.0,0003.55,0011.25,0001.91
2024-04-13 04:36:00,SystemResetWarning,0827.4,4.99,000.00,025.4,024.7,000.0,033.6,027.2,010.6,0000.0,0003.55,0011.83,0001.92
2024-04-13 04:37:00,SystemResetWarning,0827.4,5.00,000.00,025.4,024.8,000.0,033.7,027.2,010.6,0000.0,0003.60,0012.13,0001.92
2024-04-13 04:38:00,SystemResetWarning,0827.4,5.01,000.00,025.4,024.8,000.0,033.7,027.3,010.7,0000.0,0003.59,0012.73,0001.92
2024-04-13 04:39:00,SystemResetWarning,0827.4,5.01,000.00,025.5,024.8,000.0,033.7,027.3,010.8,0000.0,0003.57,0012.71,0001.91
2024-04-13 04:40:00,SystemResetWarning,0827.4,5.01,000.00,025.5,024.9,000.0,033.7,027.3,010.9,0000.0,0003.60,0012.45,0001.91
2024-04-13 04:41:00,SystemResetWarning,0827.4,5.01,000.00,025.5,024.9,000.0,033.7,027.4,010.8,0000.0,0003.64,0013.04,0001.90
2024-04-13 04:42:00,SystemResetWarning,0827.4,5.01,000.00,025.5,024.9,000.0,033.8,027.4,010.8,0000.0,0003.65,0013.26,0001.89
2024-04-13 04:43:00,SystemResetWarning,0827.4,5.00,000.00,025.6,024.9,000.0,033.8,027.4,010.8,0000.0,0003.69,0013.06,0001.90
2024-04-13 04:44:00,SystemResetWarning,0827.4,5.00,000.00,025.6,024.9,000.0,033.8,027.4,010.8,0000.0,0003.71,0012.21,0001.90
2024-04-13 04:45:00,SystemResetWarning,0827.4,5.00,000.00,025.6,025.0,000.0,033.8,027.4,010.8,0000.0,0003.71,0012.41,0001.88
2024-04-13 04:46:00,SystemResetWarning,0827.4,5.00,000.00,025.6,025.0,000.0,033.8,027.4,010.8,0000.0,0003.67,0012.48,0001.89
2024-04-13 04:47:00,SystemResetWarning,0827.4,5.00,000.00,025.7,025.0,000.0,033.9,027.5,010.8,0000.0,0003.67,0011.89,0001.87
2024-04-13 04:48:00,SystemResetWarning,0827.4,5.00,000.00,025.7,025.0,000.0,033.9,027.5,010.7,0000.0,0003.63,0011.71,0001.86
2024-04-13 04:49:00,SystemResetWarning,0827.4,5.00,000.00,025.7,025.0,000.0,033.9,027.5,010.6,0000.0,0003.60,0011.72,0001.87
2024-04-13 04:50:00,SystemResetWarning,0827.4,5.00,000.00,025.7,025.1,000.0,033.9,027.5,010.8,0000.0,0003.56,0011.70,0001.86
2024-04-13 04:51:00,SystemResetWarning,0827.4,5.00,000.00,025.7,025.1,000.0,033.9,027.5,010.8,0000.0,0003.55,0011.79,0001.85
2024-04-13 04:52:00,SystemResetWarning,0827.3,5.00,000.00,025.7,025.1,000.0,034.0,027.6,010.8,0000.0,0003.50,0011.25,0001.85
2024-04-13 04:53:00,SystemResetWarning,0827.4,5.01,000.00,025.8,025.1,000.0,034.0,027.6,010.6,0000.0,0003.50,0011.32,0001.86
2024-04-13 04:54:00,SystemResetWarning,0827.4,5.01,000.00,025.8,025.1,000.0,034.0,027.6,010.3,0000.0,0003.45,0011.42,0001.84
2024-04-13 04:55:00,SystemResetWarning,0827.4,5.01,000.00,025.8,025.1,000.0,034.0,027.6,010.3,0000.0,0003.45,0011.53,0001.85
2024-04-13 04:56:00,SystemResetWarning,0827.4,4.99,000.00,025.8,025.1,000.0,034.0,027.6,010.3,0000.0,0003.48,0012.21,0001.89
2024-04-13 04:57:00,SystemResetWarning,0827.4,4.99,000.00,025.8,025.1,000.0,034.1,027.6,010.2,0000.0,0003.45,0011.62,0001.88
2024-04-13 04:58:00,SystemResetWarning,0827.4,4.99,000.00,025.8,025.1,000.0,034.1,027.6,010.3,0000.0,0003.45,0011.52,0001.88
2024-04-13 04:59:00,SystemResetWarning,0827.4,5.00,000.00,025.8,025.2,000.0,034.1,027.6,010.3,0000.0,0003.45,0011.30,0001.88
